Paoli, Indiana
Current Conditions -  °F | °C
As of 6:55 PM on Saturday 22 Nov 2014 (Local Time) from KHNB Reporting Station
Clear Clear  
Wind Chill: 55°   Ceiling: Unl
Heat Index: 55°   Visibility: 10mi
Dew Point: 36°   Wind: 12mph
Humidity: 47%   Direction: 170°S
Pressure: 30.05"   Gusts: 17mph
Location:  38.56°N, 86.47°W
Report Text: KHNB 222355Z AUTO 17010G15KT 10SM CLR 13/02 A3005 RMK AO1 10170 20130 57017
Loading
Personal Weather Stations






























Interactive Weather Map New forecast layout! Learn more

10-Day Weather Forecast

Advertisements
Track Severe Weather on mobile